DW6005 Murcia ES current weather conditions

sailwx.info

Wind from 074

Air temperature 19.4° C
Dewpoint 16.7° C

Last reported at 2017-Sep-22 04:02 UTC.
Time now 2017-Sep-22 04:44 UTC

Location: N 38°03' W 001°06'.
View on Google Maps.

See reports from other nearby stations

  
Tides and Currents Weather Stations Pressure Air Temp Water Temp Dewpoint Dewpoint Depression Visibility Wind Speed Wind Dir Waves Ship Positions
date/time (UTC)wind fromknots sea level pressurealtimeterstation pressurevisibilityair tempwater tempwave heightnotes
2017-Sep-22 04:02 074 19.4
2017-Sep-22 03:47 074 19.4
2017-Sep-22 03:32 074 18.9
2017-Sep-22 03:17 074 19.4
2017-Sep-22 03:02 074 19.4
2017-Sep-22 02:47 074 19.4
2017-Sep-22 02:32 074 19.4
2017-Sep-22 02:18 074 19.4
2017-Sep-22 02:02 074 19.4
2017-Sep-22 01:47 074 19.4
2017-Sep-22 01:32 074 20.0
2017-Sep-22 01:17 074 20.0
2017-Sep-22 01:02 074 20.0
2017-Sep-22 00:47 074 20.0
2017-Sep-22 00:32 074 20.0
2017-Sep-22 00:17 074 20.0
2017-Sep-22 00:02 074 20.0
2017-Sep-21 23:47 074 20.0
2017-Sep-21 23:32 074 20.0
2017-Sep-21 23:17 076 20.0
2017-Sep-21 23:02 075 20.0
2017-Sep-21 22:47 075 20.0
2017-Sep-21 22:32 076 20.6
2017-Sep-21 22:17 076 20.6
2017-Sep-21 22:02 076 20.6
2017-Sep-21 21:47 076 21.1
2017-Sep-21 21:32 076 21.1
2017-Sep-21 21:17 076 21.1
2017-Sep-21 21:02 076 0 gusting 2 21.7
2017-Sep-21 20:47 076 0 gusting 4 21.7
2017-Sep-21 20:32 077 0 gusting 3 21.7
2017-Sep-21 20:17 077 1 gusting 3 21.7
2017-Sep-21 20:04 076 21.7
2017-Sep-21 19:47 076 0 gusting 4 22.2
2017-Sep-21 19:32 092 2 gusting 5 22.2
2017-Sep-21 19:17 084 1 gusting 6 22.2
2017-Sep-21 19:02 080 3 gusting 6 22.8
2017-Sep-21 18:47 087 4 gusting 7 22.8
2017-Sep-21 18:32 094 3 gusting 6 22.8
2017-Sep-21 18:17 084 5 gusting 8 23.3
2017-Sep-21 18:02 096 6 gusting 10 23.9
2017-Sep-21 17:47 084 4 gusting 10 24.4
2017-Sep-21 17:32 092 6 gusting 10 24.4
2017-Sep-21 17:16 065 6 gusting 9 25.0
2017-Sep-21 17:02 088 6 gusting 10 25.0
2017-Sep-21 16:47 090 3 gusting 9 25.6
2017-Sep-21 16:31 094 5 gusting 10 26.1
2017-Sep-21 16:16 094 6 gusting 9 26.1
2017-Sep-21 16:02 061 6 gusting 9 26.7
2017-Sep-21 15:46 075 5 gusting 12 26.7
2017-Sep-21 15:31 078 5 gusting 10 26.7
2017-Sep-21 15:18 091 3 gusting 9 27.2
2017-Sep-21 15:02 105 4 gusting 10 27.2
2017-Sep-21 14:47 101 5 gusting 9 27.8
2017-Sep-21 14:31 086 6 gusting 10 27.8
2017-Sep-21 14:16 069 5 gusting 9 27.8
2017-Sep-21 14:01 078 4 gusting 8 27.8
2017-Sep-21 13:46 099 4 gusting 10 27.8
2017-Sep-21 13:31 098 4 gusting 11 27.8
2017-Sep-21 13:16 067 4 gusting 11 27.8
2017-Sep-21 13:01 090 3 gusting 9 27.2
2017-Sep-21 12:46 067 1 gusting 6 27.2
2017-Sep-21 12:31 086 3 gusting 9 26.7
2017-Sep-21 12:16 076 0 gusting 5 26.7
2017-Sep-21 12:01 082 2 gusting 5 26.7
2017-Sep-21 11:46 040 1 gusting 8 26.1
2017-Sep-21 11:31 069 26.1
2017-Sep-21 11:16 084 0 gusting 6 25.6
2017-Sep-21 11:01 076 1 gusting 5 25.0
2017-Sep-21 10:46 084 25.0
2017-Sep-21 10:31 086 1 gusting 6 24.4
2017-Sep-21 10:16 086 0 gusting 5 23.9
2017-Sep-21 10:01 063 23.9
2017-Sep-21 09:46 064 0 gusting 4 23.9
2017-Sep-21 09:31 066 0 gusting 3 23.3
2017-Sep-21 09:16 067 23.3
2017-Sep-21 09:01 068 23.3
2017-Sep-21 08:45 068 22.2
2017-Sep-21 08:30 067 21.1
2017-Sep-21 08:15 068 20.0
2017-Sep-21 08:00 068 19.4
2017-Sep-21 07:45 068 18.3
2017-Sep-21 07:30 069 17.8
2017-Sep-21 07:15 069 17.8
2017-Sep-21 07:00 080 17.8
2017-Sep-21 06:45 080 17.2
2017-Sep-21 06:30 080 17.2
2017-Sep-21 06:15 079 17.2
2017-Sep-21 06:00 080 16.7
2017-Sep-21 05:45 080 16.7
2017-Sep-21 05:30 079 17.2
2017-Sep-21 05:15 079 17.2
2017-Sep-21 05:00 079 17.2
2017-Sep-21 04:45 079 17.2
2017-Sep-21 04:30 079 17.2
2017-Sep-21 04:15 079 17.2
2017-Sep-21 04:00 079 17.8
2017-Sep-21 03:45 079 17.8
2017-Sep-21 03:30 079 17.8
2017-Sep-21 03:17 079 17.8
2017-Sep-21 03:00 079 18.3
2017-Sep-21 02:45 079 18.3
2017-Sep-21 02:30 079 18.3
2017-Sep-21 02:15 079 18.3
2017-Sep-21 02:00 079 18.3
2017-Sep-21 01:45 079 18.3
2017-Sep-21 01:30 079 18.9
2017-Sep-21 01:14 079 18.9
2017-Sep-21 00:59 079 19.4
2017-Sep-21 00:44 079 19.4
2017-Sep-21 00:29 079 19.4
2017-Sep-21 00:14 079 19.4
2017-Sep-20 23:59 079 19.4
2017-Sep-20 23:44 079 20.0
2017-Sep-20 23:29 079 20.0
2017-Sep-20 23:14 079 20.0
2017-Sep-20 22:59 079 20.6
2017-Sep-20 22:44 079 20.6
2017-Sep-20 22:29 079 20.6
2017-Sep-20 22:14 079 20.6
2017-Sep-20 21:59 079 21.1
2017-Sep-20 21:44 079 21.1
2017-Sep-20 21:29 079 21.1
2017-Sep-20 21:14 079 1 gusting 3 21.7
2017-Sep-20 20:59 078 0 gusting 2 21.7
2017-Sep-20 20:44 078 0 gusting 3 21.7
2017-Sep-20 20:29 079 0 gusting 3 21.7
2017-Sep-20 20:14 071 1 gusting 5 21.7
2017-Sep-20 19:59 070 1 gusting 5 22.2
2017-Sep-20 19:44 087 1 gusting 6 22.2
2017-Sep-20 19:29 069 2 gusting 6 22.8
2017-Sep-20 19:14 073 2 gusting 6 22.8
2017-Sep-20 18:59 082 2 gusting 6 22.8
2017-Sep-20 18:44 086 4 gusting 6 22.8
2017-Sep-20 18:30 073 3 gusting 6 23.3
2017-Sep-20 18:14 073 3 gusting 7 23.9
2017-Sep-20 17:59 084 2 gusting 8 24.4
2017-Sep-20 17:44 111 5 gusting 8 25.0
2017-Sep-20 17:29 092 5 gusting 9 25.0
2017-Sep-20 17:14 110 4 gusting 11 25.6
2017-Sep-20 16:59 076 4 gusting 11 26.1
2017-Sep-20 16:44 109 3 gusting 7 27.2
2017-Sep-20 16:29 118 2 gusting 8 27.2
2017-Sep-20 16:14 080 0 gusting 6 27.8
2017-Sep-20 15:59 119 27.8
2017-Sep-20 15:44 084 1 gusting 10 27.8
2017-Sep-20 15:29 083 2 gusting 7 27.8
2017-Sep-20 15:14 086 3 gusting 8 27.8
2017-Sep-20 14:59 225 0 gusting 7 27.8
2017-Sep-20 14:44 090 3 gusting 7 27.8
2017-Sep-20 14:29 110 1 gusting 6 27.8
2017-Sep-20 14:14 110 2 gusting 7 27.8
2017-Sep-20 13:59 124 27.8
2017-Sep-20 13:44 131 2 gusting 10 27.8
2017-Sep-20 13:28 110 2 gusting 8 28.3
2017-Sep-20 13:15 101 28.3
2017-Sep-20 12:58 098 1 gusting 7 27.2
2017-Sep-20 12:43 085 1 gusting 8 26.7
2017-Sep-20 12:28 072 26.7
2017-Sep-20 12:13 080 1 gusting 5 26.7
2017-Sep-20 11:58 080 0 gusting 6 26.1
2017-Sep-20 11:43 071 1 gusting 6 25.6
2017-Sep-20 11:28 069 2 gusting 6 25.6
2017-Sep-20 11:13 068 25.6
2017-Sep-20 10:58 067 2 gusting 6 25.0
2017-Sep-20 10:43 067 3 gusting 7 25.0
2017-Sep-20 10:28 063 25.0
2017-Sep-20 10:13 063 0 gusting 3 24.4
2017-Sep-20 09:58 044 2 gusting 7 23.9
2017-Sep-20 09:43 005 1 gusting 4 23.9
2017-Sep-20 09:28 355 23.3
2017-Sep-20 09:13 355 23.3
2017-Sep-20 08:58 355 22.8
2017-Sep-20 08:43 355 22.2
2017-Sep-20 08:27 355 21.7
2017-Sep-20 08:12 355 21.1
2017-Sep-20 07:57 355 20.0
2017-Sep-20 07:43 355 19.4
2017-Sep-20 07:27 018 18.9
2017-Sep-20 07:13 014 18.3
2017-Sep-20 06:57 014 0 gusting 2 18.3
2017-Sep-20 06:42 014 17.8
2017-Sep-20 06:27 014 17.8
2017-Sep-20 06:12 015 17.8
2017-Sep-20 05:57 015 17.8
2017-Sep-20 05:42 015 17.8
2017-Sep-20 05:27 014 17.8
2017-Sep-20 05:12 014 17.8
2017-Sep-20 04:57 014 18.3
2017-Sep-20 04:42 014 17.8
2017-Sep-20 04:27 015 17.8
2017-Sep-20 04:12 014 18.3